Weather History for Dayton Wright, OH

Change the Weather History Date:

Thursday, February 7, 2013

  Actual Average (KFFO) Record (KFFO)
Temperature  
Mean Temperature 41 °F -  
Max Temperature 54 °F 38 °F 51 °F (2009)
Min Temperature 28 °F 22 °F -5 °F (2007)
Degree Days  
Heating Degree Days 24    
Moisture  
Dew Point 30 °F    
Average Humidity 66    
Maximum Humidity 82    
Minimum Humidity 47    
Precipitation  
Precipitation 0.00 in - - ()
Sea Level Pressure  
Sea Level Pressure 30.04 in    
Wind  
Wind Speed 6 mph (ESE)    
Max Wind Speed 10 mph    
Max Gust Speed -    
Visibility 9 miles    
Events      
Averages and records for this station are not official NWS values.
T = Trace of Precipitation, MM = Missing Value Source: NWS Daily Summary

Daily Weather History Graph

Daily Weather History Graph

Search for Another Location

Airport:

Trip Planner

Search our weather history database for the weather conditions in past years. The results will help you decide how hot, cold, wet, or windy it might be!

Date:

Astronomy

Feb. 07, 2013 Rise Set
Actual Time 7:38 AM EST 6:04 PM EST
Civil Twilight 7:10 AM EST 6:32 PM EST
Nautical Twilight 6:38 AM EST 7:04 PM EST
Astronomical Twilight 6:06 AM EST 7:35 PM EST
Moon 5:16 AM EST (2/7) 3:28 PM EST (2/7)
Length of Visible Light 11h 22m
Length of Day
10h 26m
Waning Crescent, 9% of the Moon is Illuminated
Feb 7
Waning Crescent
Feb 10
New
Feb 17
First Quarter
Feb 25
Full
Mar 4
Last Quarter

Hourly Weather History & Observations

Time (EST) Temp. Windchill Dew Point Humidity Pressure Visibility Wind Dir Wind Speed Gust Speed Precip Events Conditions
12:53 AM 28.9 °F 21.9 °F 23.0 °F 78% 30.21 in 8.0 mi ESE 6.9 mph - N/A   Clear
1:53 AM 30.0 °F 24.1 °F 23.0 °F 75% 30.20 in 9.0 mi SE 5.8 mph - N/A   Clear
2:53 AM 30.0 °F 26.5 °F 24.1 °F 79% 30.20 in 8.0 mi East 3.5 mph - N/A   Overcast
3:53 AM 30.0 °F 25.2 °F 24.1 °F 79% 30.18 in 8.0 mi East 4.6 mph - N/A   Mostly Cloudy
4:53 AM 30.9 °F 24.3 °F 25.0 °F 79% 30.17 in 9.0 mi ESE 6.9 mph - N/A   Mostly Cloudy
5:53 AM 30.9 °F - 25.0 °F 79% 30.19 in 8.0 mi Calm Calm - N/A   Overcast
6:53 AM 30.0 °F 25.2 °F 25.0 °F 82% 30.17 in 8.0 mi East 4.6 mph - N/A   Partly Cloudy
7:53 AM 30.9 °F 22.8 °F 26.1 °F 82% 30.14 in 7.0 mi East 9.2 mph - N/A   Partly Cloudy
8:53 AM 32.0 °F 27.5 °F 26.1 °F 79% 30.14 in 7.0 mi East 4.6 mph - N/A   Scattered Clouds
9:53 AM 36.0 °F 29.6 °F 28.0 °F 73% 30.12 in 9.0 mi ESE 8.1 mph - N/A   Clear
10:53 AM 39.9 °F 35.8 °F 30.0 °F 68% 30.11 in 10.0 mi East 5.8 mph - N/A   Clear
11:53 AM 43.0 °F 40.3 °F 30.9 °F 62% 30.09 in 10.0 mi ENE 4.6 mph - N/A   Clear
12:53 PM 46.9 °F - 30.9 °F 54% 30.05 in 10.0 mi SE 6.9 mph - N/A   Clear
1:53 PM 50.0 °F - 32.0 °F 50% 29.99 in 10.0 mi Calm Calm - N/A   Clear
2:53 PM 52.0 °F - 33.1 °F 49% 29.97 in 10.0 mi SSE 6.9 mph - N/A   Clear
3:53 PM 54.0 °F - 34.0 °F 47% 29.96 in 10.0 mi South 3.5 mph - N/A   Clear
4:53 PM 53.1 °F - 34.0 °F 48% 29.94 in 10.0 mi SSE 6.9 mph - N/A   Clear
5:53 PM 48.9 °F - 35.1 °F 59% 29.93 in 10.0 mi ESE 6.9 mph - N/A   Clear
6:53 PM 46.9 °F - 35.1 °F 63% 29.91 in 10.0 mi East 6.9 mph - N/A   Clear
7:53 PM 45.0 °F 41.2 °F 35.1 °F 68% 29.90 in 10.0 mi ESE 6.9 mph - N/A   Clear
8:53 PM 48.0 °F - 34.0 °F 58% 29.86 in 10.0 mi SE 10.4 mph - N/A   Clear
9:53 PM 46.9 °F - 34.0 °F 61% 29.85 in 10.0 mi SSE 9.2 mph - N/A   Clear
10:53 PM 46.9 °F - 34.0 °F 61% 29.82 in 10.0 mi South 9.2 mph - N/A   Clear
11:53 PM 48.9 °F - 35.1 °F 59% 29.81 in 10.0 mi South 10.4 mph - N/A   Overcast